Home > Weather > Long Beach > Past weeks

Flag for USA Past Weather in Long Beach, California, USA — Yesterday and Last 2 Weeks

Now
66 °F

Clear.


Feels Like: 66 °F
Forecast: 65 / 82 °F
Wind: 6 mph from Northwest

Location: Long Beach Airport

Current Time: Aug 28, 2016 at 2:07:09 AM

Latest Report: Aug 28, 2016 at 12:53 AM


Visibility: 10 mi

Pressure: 29.99 "Hg

Humidity: 81%

Dew Point: 60 °F

Location of Long BeachLocation

Past Weather in Long Beach — Graph

°F

Long Beach Temperature Yesterday

Maximum temperature yesterday: 76 °F (at 1:53 PM)
Minimum temperature yesterday: 65 °F (at 12:53 AM)
Average temperature yesterday: 69 °F

High & Low Weather Summary for the Past Weeks

 TemperatureHumidityPressure
High94 °F (Aug 15, 1:53 PM)97% (Aug 17, 7:00 AM)30.04 "Hg (Aug 17, 7:00 AM)
Low61 °F (Aug 17, 7:00 AM)30% (Aug 16, 4:53 PM)29.79 "Hg (Aug 17, 6:53 PM)
Average72 °F69%29.91 "Hg
* Reported Aug 13 12:53 AM — Aug 28 12:53 AM, Long Beach, Weather by CustomWeather, © 2016

Note: Actual official high and low records may vary slightly from our data, if they occured in-between our weather recording intervals... More about our weather records

Advertising

Long Beach Weather History for the Previous 24 Hours

Scroll right to see more
 ConditionsComfort  
Time TempWeatherWind HumidityBarometerVisibility
12:53 AM
Sun, Aug 28
66 °FClear.6 mph81%29.99 "Hg10 mi
11:53 PM
Sat, Aug 27
66 °FClear.6 mph81%29.98 "Hg10 mi
10:53 PM67 °FClear.6 mph81%29.98 "Hg10 mi
9:53 PM67 °FClear.9 mph79%29.97 "Hg10 mi
8:53 PM68 °FClear.10 mph76%29.96 "Hg10 mi
7:53 PM69 °FSunny.12 mph73%29.95 "Hg10 mi
6:53 PM70 °FSunny.12 mph73%29.93 "Hg10 mi
5:53 PM73 °FSunny.13 mph62%29.92 "Hg10 mi
4:53 PM75 °FSunny.10 mph58%29.93 "Hg10 mi
3:53 PM75 °FSunny.9 mph54%29.93 "Hg10 mi
2:53 PM75 °FSunny.12 mph54%29.95 "Hg10 mi
1:53 PM76 °FSunny.8 mph54%29.97 "Hg10 mi
12:53 PM73 °FPassing clouds.6 mph59%29.98 "Hg10 mi
12:02 PM72 °FPartly sunny.No wind59%30.00 "Hg10 mi
11:53 AM73 °FPartly sunny.3 mph57%30.00 "Hg10 mi
10:53 AM71 °FOvercast.5 mph63%30.01 "Hg10 mi
9:53 AM69 °FOvercast.3 mph68%30.01 "Hg10 mi
8:53 AM67 °FOvercast.3 mph73%30.00 "Hg10 mi
7:53 AM67 °FOvercast.5 mph73%29.98 "Hg10 mi
6:53 AM67 °FOvercast.6 mph73%29.97 "Hg10 mi
5:53 AM66 °FOvercast.3 mph75%29.96 "Hg10 mi
4:53 AM66 °FOvercast.3 mph75%29.95 "Hg10 mi
3:53 AM66 °FOvercast.No wind75%29.95 "Hg10 mi
2:53 AM66 °FOvercast.No wind75%29.96 "Hg10 mi
Weather by CustomWeather, © 2016

See weather overviewHow to use our weather pages